Tillbaka till svenska Fidonet
English   Information   Debug  
FILM   0/18
FNEWS_PUBLISH   4926
FN_SYSOP   42201
FN_SYSOP_OLD1   71952
FTP_FIDO   0/2
FTSC_PUBLIC   0/13972
FUNNY   0/4886
GENEALOGY.EUR   0/71
GET_INFO   105
GOLDED   0/408
HAM   6286/16660
HOLYSMOKE   0/6791
HOT_SITES   0/1
HTMLEDIT   0/71
HUB203   466
HUB_100   264
HUB_400   39
HUMOR   0/29
IC   0/2851
INTERNET   0/424
INTERUSER   0/3
IP_CONNECT   719
JAMNNTPD   0/233
JAMTLAND   0/47
KATTY_KORNER   0/41
LAN   0/16
LINUX-USER   0/19
LINUXHELP   0/1155
LINUX   0/22300
LINUX_BBS   0/957
mail   18.68
mail_fore_ok   249
MENSA   0/341
MODERATOR   0/102
MONTE   0/992
MOSCOW_OKLAHOMA   0/1245
MUFFIN   0/783
MUSIC   0/321
N203_STAT   938
N203_SYSCHAT   313
NET203   321
NET204   69
NET_DEV   0/10
NORD.ADMIN   0/101
NORD.CHAT   0/2572
NORD.FIDONET   189
NORD.HARDWARE   0/28
NORD.KULTUR   0/114
NORD.PROG   0/32
NORD.SOFTWARE   0/88
NORD.TEKNIK   0/58
NORD   0/453
OCCULT_CHAT   0/93
OS2BBS   0/787
OS2DOSBBS   0/580
OS2HW   0/42
OS2INET   0/37
OS2LAN   0/134
OS2PROG   0/36
OS2REXX   0/113
OS2USER-L   207
OS2   0/4830
OSDEBATE   0/18996
PASCAL   0/490
PERL   0/457
PHP   0/45
POINTS   0/405
POLITICS   0/29554
POL_INC   0/14731
PSION   103
R20_ADMIN   1133
R20_AMATORRADIO   0/2
R20_BEST_OF_FIDONET   16
R20_CHAT   0/896
R20_DEPP   0/3
R20_DEV   400
R20_ECHO2   1830
R20_ECHOPRES   0/35
R20_ESTAT   0/719
R20_FIDONETPROG...
...RAM.MYPOINT
  0/2
R20_FIDONETPROGRAM   0/22
R20_FIDONET   0/248
R20_FILEFIND   0/24
R20_FILEFOUND   0/22
R20_HIFI   0/3
R20_INFO2   3723
R20_INTERNET   0/12940
R20_INTRESSE   0/60
R20_INTR_KOM   0/99
R20_KANDIDAT.CHAT   42
R20_KANDIDAT   28
R20_KOM_DEV   112
R20_KONTROLL   0/13360
R20_KORSET   0/18
R20_LOKALTRAFIK   0/24
R20_MODERATOR   0/1852
R20_NC   76
R20_NET200   245
R20_NETWORK.OTH...
...ERNETS
  0/13
R20_OPERATIVSYS...
...TEM.LINUX
  0/44
R20_PROGRAMVAROR   0/1
R20_REC2NEC   534
R20_SFOSM   0/341
R20_SF   0/108
R20_SPRAK.ENGLISH   0/1
R20_SQUISH   107
R20_TEST   2
R20_WORST_OF_FIDONET   20
RAR   0/9
RA_MULTI   106
RA_UTIL   0/162
REGCON.EUR   0/2068
REGCON   0/13
SCIENCE   0/1206
SF   0/239
SHAREWARE_SUPPORT   0/5146
SHAREWRE   0/14
SIMPSONS   0/169
STATS_OLD1   0/2539.065
STATS_OLD2   0/2530
STATS_OLD3   0/2395.095
STATS_OLD4   0/1692.25
SURVIVOR   0/495
SYSOPS_CORNER   0/3
SYSOP   0/84
TAGLINES   0/112
TEAMOS2   0/4530
TECH   0/2617
TEST.444   0/105
TRAPDOOR   0/19
TREK   0/755
TUB   0/290
UFO   0/40
UNIX   0/1316
USA_EURLINK   0/102
USR_MODEMS   0/1
VATICAN   0/2740
VIETNAM_VETS   0/14
VIRUS   0/378
VIRUS_INFO   0/201
VISUAL_BASIC   0/473
WHITEHOUSE   0/5187
WIN2000   0/101
WIN32   0/30
WIN95   0/4291
WIN95_OLD1   0/70272
WINDOWS   0/1517
WWB_SYSOP   0/419
WWB_TECH   0/810
ZCC-PUBLIC   0/1
ZEC   4

 
4DOS   0/134
ABORTION   0/7
ALASKA_CHAT   0/506
ALLFIX_FILE   0/1313
ALLFIX_FILE_OLD1   0/7997
ALT_DOS   0/152
AMATEUR_RADIO   0/1039
AMIGASALE   0/14
AMIGA   0/331
AMIGA_INT   0/1
AMIGA_PROG   0/20
AMIGA_SYSOP   0/26
ANIME   0/15
ARGUS   0/924
ASCII_ART   0/340
ASIAN_LINK   0/651
ASTRONOMY   0/417
AUDIO   0/92
AUTOMOBILE_RACING   0/105
BABYLON5   0/17862
BAG   135
BATPOWER   0/361
BBBS.ENGLISH   0/382
BBSLAW   0/109
BBS_ADS   0/5290
BBS_INTERNET   0/507
BIBLE   0/3563
BINKD   0/1119
BINKLEY   0/215
BLUEWAVE   0/2173
CABLE_MODEMS   0/25
CBM   0/46
CDRECORD   0/66
CDROM   0/20
CLASSIC_COMPUTER   0/378
COMICS   0/15
CONSPRCY   0/899
COOKING   41444
COOKING_OLD1   0/24719
COOKING_OLD2   0/40862
COOKING_OLD3   0/37489
COOKING_OLD4   0/35496
COOKING_OLD5   9370
C_ECHO   0/189
C_PLUSPLUS   0/31
DIRTY_DOZEN   0/201
DOORGAMES   0/2285
DOS_INTERNET   0/196
duplikat   6102
ECHOLIST   0/18295
EC_SUPPORT   0/318
ELECTRONICS   0/359
ELEKTRONIK.GER   1534
ENET.LINGUISTIC   0/13
ENET.POLITICS   0/4
ENET.SOFT   0/11701
ENET.SYSOP   34296
ENET.TALKS   0/32
ENGLISH_TUTOR   0/2000
EVOLUTION   0/1335
FDECHO   0/217
FDN_ANNOUNCE   0/7068
FIDONEWS   25062
FIDONEWS_OLD1   0/49742
FIDONEWS_OLD2   0/35949
FIDONEWS_OLD3   0/30874
FIDONEWS_OLD4   0/37224
FIDO_SYSOP   12922
FIDO_UTIL   0/180
FILEFIND   0/209
FILEGATE   0/212
Möte HAM, 16660 texter
 lista första sista föregående nästa
Text 5295, 979 rader
Skriven 2012-05-17 23:31:23 av Amsat List (1:323/120.0)
Ärende: [keps] orb12138.amsa
============================
[keps] orb12138.amsa

Sender: keps-bounces@amsat.org
Return-Path: <keps-bounces@amsat.org>
X-Rcpt: craig.healy@chowda.com
X-UIDL: 1337311116.1482

SB KEPS @ AMSAT  $ORB12138.O
Orbital Elements  12138.OSCAR

HR AMSAT ORBITAL ELEMENTS FOR OSCAR SATELLITES
FROM WA5QGD FORT WORTH,TX May 17, 2012
Send SUBSCRIBE KEPS/UNSUBSCRIBE KEPS to majordomo@amsat.org only
BID: ORB12138.O
TO ALL RADIO AMATEURS BT

Satellite: AO-07
Catalog number: 07530
Epoch time:      12138.42020871
Element set:     381
Inclination:      101.4014 deg
RA of node:       136.8198 deg
Eccentricity:    0.0011915
Arg of perigee:   344.4740 deg
Mean anomaly:     015.5976 deg
Mean motion:   12.53589299 rev/day
Decay rate:       -2.7e-07 rev/day^2
Epoch rev:           71619
Checksum:              294

Satellite: FO-29
Catalog number: 24278
Epoch time:      12137.90520871
Element set:    0848
Inclination:      098.5839 deg
RA of node:       242.6568 deg
Eccentricity:    0.0351237
Arg of perigee:   110.2840 deg
Mean anomaly:     253.6413 deg
Mean motion:   13.52983410 rev/day
Decay rate:        6.0e-08 rev/day^2
Epoch rev:           77772
Checksum:              320

Satellite: SO-33
Catalog number: 25509
Epoch time:      12137.47682434
Element set:     233
Inclination:      031.4350 deg
RA of node:       153.1475 deg
Eccentricity:    0.0352774
Arg of perigee:   285.8160 deg
Mean anomaly:     070.3851 deg
Mean motion:   14.28735060 rev/day
Decay rate:       6.76e-06 rev/day^2
Epoch rev:           70811
Checksum:              293

Satellite: RS-22
Catalog number: 27939
Epoch time:      12138.72000763
Element set:     362
Inclination:      097.8152 deg
RA of node:       341.0971 deg
Eccentricity:    0.0013551
Arg of perigee:   007.0722 deg
Mean anomaly:     353.0672 deg
Mean motion:   14.64007940 rev/day
Decay rate:       5.55e-06 rev/day^2
Epoch rev:           46142
Checksum:              278

Satellite: VO-52
Catalog number: 28650
Epoch time:      12137.81410167
Element set:    0105
Inclination:      097.5999 deg
RA of node:       170.3018 deg
Eccentricity:    0.0027209
Arg of perigee:   142.0385 deg
Mean anomaly:     218.2729 deg
Mean motion:   14.82900887 rev/day
Decay rate:      1.466e-05 rev/day^2
Epoch rev:           38032
Checksum:              307

Satellite: HO-68
Catalog number: 36122
Epoch time:      12138.73649777
Element set:     469
Inclination:      100.3635 deg
RA of node:       198.6939 deg
Eccentricity:    0.0007515
Arg of perigee:   176.2935 deg
Mean anomaly:     183.8243 deg
Mean motion:   13.16295420 rev/day
Decay rate:       -4.4e-07 rev/day^2
Epoch rev:           11638
Checksum:              327

/EX
SB KEPS @ AMSAT  $ORB12138.D
Orbital Elements  12138.MICROS

HR AMSAT ORBITAL ELEMENTS FOR THE MICROSATS
FROM WA5QGD FORT WORTH,TX May 17, 2012
Send SUBSCRIBE KEPS/UNSUBSCRIBE KEPS to majordomo@amsat.org only
BID: ORB12138.D
TO ALL RADIO AMATEURS BT

Satellite: UO-11
Catalog number: 14781
Epoch time:      12137.89504437
Element set:    0876
Inclination:      097.9563 deg
RA of node:       197.6858 deg
Eccentricity:    0.0009598
Arg of perigee:   129.7339 deg
Mean anomaly:     230.4715 deg
Mean motion:   14.80424556 rev/day
Decay rate:       6.91e-06 rev/day^2
Epoch rev:           51530
Checksum:              347

Satellite: AO-16
Catalog number: 20439
Epoch time:      12138.48440302
Element set:     467
Inclination:      098.4284 deg
RA of node:       082.7215 deg
Eccentricity:    0.0009947
Arg of perigee:   250.4501 deg
Mean anomaly:     109.5610 deg
Mean motion:   14.32048928 rev/day
Decay rate:       1.43e-06 rev/day^2
Epoch rev:           16560
Checksum:              287

Satellite: LO-19
Catalog number: 20442
Epoch time:      12137.95318682
Element set:    0394
Inclination:      098.3942 deg
RA of node:       085.3209 deg
Eccentricity:    0.0011008
Arg of perigee:   241.7355 deg
Mean anomaly:     118.2715 deg
Mean motion:   14.32267764 rev/day
Decay rate:       1.62e-06 rev/day^2
Epoch rev:           16571
Checksum:              299

Satellite: AO-27
Catalog number: 22825
Epoch time:      12137.88754780
Element set:     104
Inclination:      098.5728 deg
RA of node:       081.1925 deg
Eccentricity:    0.0008802
Arg of perigee:   017.9186 deg
Mean anomaly:     342.2297 deg
Mean motion:   14.29456395 rev/day
Decay rate:        8.9e-07 rev/day^2
Epoch rev:           97200
Checksum:              332

Satellite: IO-26
Catalog number: 22826
Epoch time:      12138.52426516
Element set:     854
Inclination:      098.5674 deg
RA of node:       082.1982 deg
Eccentricity:    0.0009170
Arg of perigee:   009.7811 deg
Mean anomaly:     350.3546 deg
Mean motion:   14.29730074 rev/day
Decay rate:       1.27e-06 rev/day^2
Epoch rev:           97222
Checksum:              308

Satellite: GO-32
Catalog number: 25397
Epoch time:      12138.18416799
Element set:     776
Inclination:      098.3602 deg
RA of node:       118.4236 deg
Eccentricity:    0.0001754
Arg of perigee:   048.1481 deg
Mean anomaly:     311.9853 deg
Mean motion:   14.23274520 rev/day
Decay rate:       1.89e-06 rev/day^2
Epoch rev:           71961
Checksum:              319

Satellite: NO-44
Catalog number: 26931
Epoch time:      12138.40264948
Element set:      41
Inclination:      067.0518 deg
RA of node:       199.6823 deg
Eccentricity:    0.0007649
Arg of perigee:   269.5185 deg
Mean anomaly:     090.5044 deg
Mean motion:   14.29793249 rev/day
Decay rate:        3.9e-07 rev/day^2
Epoch rev:           55484
Checksum:              334

